Time,TemperatureF,DewpointF,PressureIn,WindDirection,WindDirectionDegrees,WindSpeedMPH,WindSpeedGustMPH,Humidity,HourlyPrecipIn,Conditions,Clouds,dailyrainin,SoftwareType,DateUTC
2013-05-04 00:00:00,61.0,40.6,29.81,SSE,157,8.0,16.0,47,0.00,,,0.00,Weather View 32 v70,2013-05-04 04:00:00,
2013-05-04 00:01:00,61.0,40.6,29.81,SE,135,6.0,16.0,47,0.00,,,0.00,Weather View 32 v70,2013-05-04 04:01:00,
2013-05-04 00:06:00,60.8,40.9,29.81,SE,135,6.0,16.0,48,0.00,,,0.00,Weather View 32 v70,2013-05-04 04:06:00,
2013-05-04 00:11:00,60.4,40.6,29.81,SE,135,12.0,16.0,48,0.00,,,0.00,Weather View 32 v70,2013-05-04 04:11:00,
2013-05-04 00:16:00,60.4,40.6,29.81,SSE,157,7.0,16.0,48,0.00,,,0.00,Weather View 32 v70,2013-05-04 04:16:00,
2013-05-04 00:21:00,60.4,40.6,29.81,SSE,157,12.0,16.0,48,0.00,,,0.00,Weather View 32 v70,2013-05-04 04:21:00,
2013-05-04 00:26:00,60.4,40.6,29.80,SSE,157,9.0,16.0,48,0.00,,,0.00,Weather View 32 v70,2013-05-04 04:26:00,
2013-05-04 00:31:00,60.4,40.6,29.80,SSE,157,8.0,16.0,48,0.00,,,0.00,Weather View 32 v70,2013-05-04 04:31:00,
2013-05-04 00:36:00,60.6,40.8,29.80,SSE,157,9.0,16.0,48,0.00,,,0.00,Weather View 32 v70,2013-05-04 04:36:00,
2013-05-04 00:41:00,60.7,40.8,29.80,SSE,157,11.0,16.0,48,0.00,,,0.00,Weather View 32 v70,2013-05-04 04:41:00,
2013-05-04 00:46:00,60.9,41.0,29.80,SSE,157,11.0,15.0,48,0.00,,,0.00,Weather View 32 v70,2013-05-04 04:46:00,
2013-05-04 00:51:00,61.1,40.7,29.80,South,180,8.0,15.0,47,0.00,,,0.00,Weather View 32 v70,2013-05-04 04:51:00,
2013-05-04 00:56:00,60.8,40.9,29.80,SSE,157,10.0,15.0,48,0.00,,,0.00,Weather View 32 v70,2013-05-04 04:56:00,
2013-05-04 01:01:00,60.7,40.8,29.80,SE,135,8.0,15.0,48,0.00,,,0.00,Weather View 32 v70,2013-05-04 05:01:00,
2013-05-04 01:06:00,60.6,40.8,29.80,SSE,157,12.0,15.0,48,0.00,,,0.00,Weather View 32 v70,2013-05-04 05:06:00,
2013-05-04 01:11:00,60.5,41.2,29.80,SSE,157,12.0,15.0,49,0.00,,,0.00,Weather View 32 v70,2013-05-04 05:11:00,
2013-05-04 01:16:00,60.4,41.1,29.80,SE,135,5.0,15.0,49,0.00,,,0.00,Weather View 32 v70,2013-05-04 05:16:00,
2013-05-04 01:21:00,60.1,40.8,29.80,SSE,157,9.0,15.0,49,0.00,,,0.00,Weather View 32 v70,2013-05-04 05:21:00,
2013-05-04 01:26:00,59.9,41.2,29.80,SSE,157,6.0,15.0,50,0.00,,,0.00,Weather View 32 v70,2013-05-04 05:26:00,
2013-05-04 01:31:00,59.9,41.2,29.80,SSE,157,7.0,15.0,50,0.00,,,0.00,Weather View 32 v70,2013-05-04 05:31:00,
2013-05-04 01:36:00,59.8,41.1,29.80,SE,135,7.0,15.0,50,0.00,,,0.00,Weather View 32 v70,2013-05-04 05:36:00,
2013-05-04 01:41:00,59.4,41.7,29.80,ESE,112,7.0,15.0,52,0.00,,,0.00,Weather View 32 v70,2013-05-04 05:41:00,
2013-05-04 01:46:00,59.3,41.1,29.79,SSE,157,7.0,15.0,51,0.00,,,0.00,Weather View 32 v70,2013-05-04 05:46:00,
2013-05-04 01:51:00,59.2,41.0,29.79,SSE,157,6.0,15.0,51,0.00,,,0.00,Weather View 32 v70,2013-05-04 05:51:00,
2013-05-04 01:56:00,58.9,40.8,29.79,SSE,157,7.0,15.0,51,0.00,,,0.00,Weather View 32 v70,2013-05-04 05:56:00,
2013-05-04 02:01:00,58.6,40.5,29.79,SE,135,7.0,15.0,51,0.00,,,0.00,Weather View 32 v70,2013-05-04 06:01:00,
2013-05-04 02:06:00,58.4,40.8,29.79,SSE,157,4.0,15.0,52,0.00,,,0.00,Weather View 32 v70,2013-05-04 06:06:00,
2013-05-04 02:11:00,58.1,40.5,29.79,SSE,157,9.0,15.0,52,0.00,,,0.00,Weather View 32 v70,2013-05-04 06:11:00,
2013-05-04 02:16:00,58.1,40.5,29.78,SE,135,6.0,14.0,52,0.00,,,0.00,Weather View 32 v70,2013-05-04 06:16:00,
2013-05-04 02:21:00,58.0,40.4,29.78,SSE,157,6.0,14.0,52,0.00,,,0.00,Weather View 32 v70,2013-05-04 06:21:00,
2013-05-04 02:26:00,57.7,40.6,29.78,SE,135,6.0,14.0,53,0.00,,,0.00,Weather View 32 v70,2013-05-04 06:26:00,
2013-05-04 02:31:00,57.2,40.7,29.78,SE,135,6.0,14.0,54,0.00,,,0.00,Weather View 32 v70,2013-05-04 06:31:00,
2013-05-04 02:36:00,56.9,40.9,29.78,ESE,112,9.0,14.0,55,0.00,,,0.00,Weather View 32 v70,2013-05-04 06:36:00,
2013-05-04 02:41:00,57.0,41.0,29.78,ESE,112,6.0,14.0,55,0.00,,,0.00,Weather View 32 v70,2013-05-04 06:41:00,
2013-05-04 02:46:00,56.8,41.2,29.78,SSE,157,5.0,12.0,56,0.00,,,0.00,Weather View 32 v70,2013-05-04 06:46:00,
2013-05-04 02:51:00,56.6,41.1,29.78,SE,135,6.0,12.0,56,0.00,,,0.00,Weather View 32 v70,2013-05-04 06:51:00,
2013-05-04 02:56:00,56.7,41.1,29.78,ESE,112,6.0,12.0,56,0.00,,,0.00,Weather View 32 v70,2013-05-04 06:56:00,
2013-05-04 03:01:00,56.4,41.3,29.78,SE,135,3.0,12.0,57,0.00,,,0.00,Weather View 32 v70,2013-05-04 07:01:00,
2013-05-04 03:06:00,55.4,41.3,29.78,ESE,112,6.0,12.0,59,0.00,,,0.00,Weather View 32 v70,2013-05-04 07:06:00,
2013-05-04 03:11:00,55.6,41.5,29.78,SE,135,7.0,12.0,59,0.00,,,0.00,Weather View 32 v70,2013-05-04 07:11:00,
2013-05-04 03:16:00,55.4,41.3,29.78,SE,135,6.0,11.0,59,0.00,,,0.00,Weather View 32 v70,2013-05-04 07:16:00,
2013-05-04 03:21:00,55.5,41.4,29.78,ESE,112,6.0,11.0,59,0.00,,,0.00,Weather View 32 v70,2013-05-04 07:21:00,
2013-05-04 03:26:00,55.6,41.5,29.78,SE,135,4.0,11.0,59,0.00,,,0.00,Weather View 32 v70,2013-05-04 07:26:00,
2013-05-04 03:31:00,55.4,41.3,29.78,SSE,157,7.0,10.0,59,0.00,,,0.00,Weather View 32 v70,2013-05-04 07:31:00,
2013-05-04 03:36:00,55.6,41.5,29.78,SE,135,7.0,10.0,59,0.00,,,0.00,Weather View 32 v70,2013-05-04 07:36:00,
2013-05-04 03:42:00,55.6,41.5,29.78,SSE,157,6.0,10.0,59,0.00,,,0.00,Weather View 32 v70,2013-05-04 07:42:00,
2013-05-04 03:47:00,55.8,41.7,29.78,ESE,112,8.0,12.0,59,0.00,,,0.00,Weather View 32 v70,2013-05-04 07:47:00,
2013-05-04 03:52:00,55.8,41.7,29.78,ESE,112,8.0,12.0,59,0.00,,,0.00,Weather View 32 v70,2013-05-04 07:52:00,
2013-05-04 03:57:00,55.8,41.7,29.77,ESE,112,7.0,12.0,59,0.00,,,0.00,Weather View 32 v70,2013-05-04 07:57:00,
2013-05-04 04:02:00,55.7,41.6,29.78,ESE,112,7.0,12.0,59,0.00,,,0.00,Weather View 32 v70,2013-05-04 08:02:00,
2013-05-04 04:07:00,55.6,41.5,29.77,ESE,112,7.0,12.0,59,0.00,,,0.00,Weather View 32 v70,2013-05-04 08:07:00,
2013-05-04 04:12:00,55.7,41.6,29.77,SE,135,9.0,12.0,59,0.00,,,0.00,Weather View 32 v70,2013-05-04 08:12:00,
2013-05-04 04:17:00,55.8,41.7,29.77,SE,135,6.0,12.0,59,0.00,,,0.00,Weather View 32 v70,2013-05-04 08:17:00,
2013-05-04 04:22:00,55.4,41.7,29.77,SE,135,5.0,12.0,60,0.00,,,0.00,Weather View 32 v70,2013-05-04 08:22:00,
2013-05-04 04:27:00,55.5,41.8,29.77,ESE,112,5.0,12.0,60,0.00,,,0.00,Weather View 32 v70,2013-05-04 08:27:00,
2013-05-04 04:32:00,55.6,41.9,29.77,SE,135,6.0,12.0,60,0.00,,,0.00,Weather View 32 v70,2013-05-04 08:32:00,
2013-05-04 04:37:00,55.5,41.8,29.77,SE,135,3.0,12.0,60,0.00,,,0.00,Weather View 32 v70,2013-05-04 08:37:00,
2013-05-04 04:42:00,55.0,41.8,29.77,SE,135,5.0,12.0,61,0.00,,,0.00,Weather View 32 v70,2013-05-04 08:42:00,
2013-05-04 04:47:00,54.6,42.2,29.77,SE,135,6.0,12.0,63,0.00,,,0.00,Weather View 32 v70,2013-05-04 08:47:00,
2013-05-04 04:52:00,54.7,42.3,29.77,ESE,112,10.0,12.0,63,0.00,,,0.00,Weather View 32 v70,2013-05-04 08:52:00,
2013-05-04 04:57:00,54.6,42.2,29.78,ESE,112,6.0,12.0,63,0.00,,,0.00,Weather View 32 v70,2013-05-04 08:57:00,
2013-05-04 05:02:00,54.6,42.2,29.78,SE,135,10.0,12.0,63,0.00,,,0.00,Weather View 32 v70,2013-05-04 09:02:00,
2013-05-04 05:07:00,54.6,42.2,29.78,ESE,112,10.0,12.0,63,0.00,,,0.00,Weather View 32 v70,2013-05-04 09:07:00,
2013-05-04 05:12:00,54.6,42.2,29.77,ESE,112,8.0,13.0,63,0.00,,,0.00,Weather View 32 v70,2013-05-04 09:12:00,
2013-05-04 05:17:00,54.8,42.4,29.78,SE,135,3.0,13.0,63,0.00,,,0.00,Weather View 32 v70,2013-05-04 09:17:00,
2013-05-04 05:22:00,54.5,42.1,29.77,ESE,112,5.0,13.0,63,0.00,,,0.00,Weather View 32 v70,2013-05-04 09:22:00,
2013-05-04 05:27:00,54.4,42.0,29.77,ESE,112,10.0,13.0,63,0.00,,,0.00,Weather View 32 v70,2013-05-04 09:27:00,
2013-05-04 05:32:00,54.4,42.0,29.78,ESE,112,8.0,13.0,63,0.00,,,0.00,Weather View 32 v70,2013-05-04 09:32:00,
2013-05-04 05:37:00,54.6,42.2,29.78,SSE,157,9.0,13.0,63,0.00,,,0.00,Weather View 32 v70,2013-05-04 09:37:00,
2013-05-04 05:42:00,54.4,42.0,29.78,SSE,157,8.0,13.0,63,0.00,,,0.00,Weather View 32 v70,2013-05-04 09:42:00,
2013-05-04 05:47:00,54.3,42.4,29.78,ESE,112,10.0,13.0,64,0.00,,,0.00,Weather View 32 v70,2013-05-04 09:47:00,
2013-05-04 05:52:00,54.3,42.4,29.78,SE,135,7.0,13.0,64,0.00,,,0.00,Weather View 32 v70,2013-05-04 09:52:00,
2013-05-04 05:57:00,54.3,42.4,29.78,ESE,112,9.0,13.0,64,0.00,,,0.00,Weather View 32 v70,2013-05-04 09:57:00,
2013-05-04 06:02:00,54.4,42.5,29.78,ESE,112,5.0,13.0,64,0.00,,,0.00,Weather View 32 v70,2013-05-04 10:02:00,
2013-05-04 06:07:00,54.4,42.5,29.78,SE,135,9.0,13.0,64,0.00,,,0.00,Weather View 32 v70,2013-05-04 10:07:00,
2013-05-04 06:12:00,54.6,42.2,29.78,West,270,0.0,13.0,63,0.00,,,0.00,Weather View 32 v70,2013-05-04 10:12:00,
2013-05-04 06:17:00,53.5,41.6,29.78,West,270,0.0,13.0,64,0.00,,,0.00,Weather View 32 v70,2013-05-04 10:17:00,
2013-05-04 06:22:00,52.3,42.0,29.79,WSW,247,0.0,13.0,68,0.00,,,0.00,Weather View 32 v70,2013-05-04 10:22:00,
2013-05-04 06:27:00,51.4,41.6,29.79,WSW,247,0.0,13.0,69,0.00,,,0.00,Weather View 32 v70,2013-05-04 10:27:00,
2013-05-04 06:32:00,51.0,41.5,29.79,WSW,247,0.0,13.0,70,0.00,,,0.00,Weather View 32 v70,2013-05-04 10:32:00,
2013-05-04 06:37:00,52.0,42.9,29.79,WSW,247,0.0,13.0,71,0.00,,,0.00,Weather View 32 v70,2013-05-04 10:37:00,
2013-05-04 06:42:00,53.2,43.7,29.78,WNW,292,0.0,13.0,70,0.00,,,0.00,Weather View 32 v70,2013-05-04 10:42:00,
2013-05-04 06:47:00,54.2,43.1,29.78,ESE,112,1.0,13.0,66,0.00,,,0.00,Weather View 32 v70,2013-05-04 10:47:00,
2013-05-04 06:52:00,55.9,43.9,29.78,West,270,4.0,13.0,64,0.00,,,0.00,Weather View 32 v70,2013-05-04 10:52:00,
2013-05-04 06:57:00,56.0,43.6,29.78,WNW,292,1.0,13.0,63,0.00,,,0.00,Weather View 32 v70,2013-05-04 10:57:00,
2013-05-04 07:02:00,55.7,43.3,29.78,West,270,3.0,13.0,63,0.00,,,0.00,Weather View 32 v70,2013-05-04 11:02:00,
2013-05-04 07:07:00,55.1,43.5,29.79,West,270,0.0,13.0,65,0.00,,,0.00,Weather View 32 v70,2013-05-04 11:07:00,
2013-05-04 07:12:00,54.9,43.7,29.79,WNW,292,2.0,13.0,66,0.00,,,0.00,Weather View 32 v70,2013-05-04 11:12:00,
2013-05-04 07:17:00,55.3,44.5,29.79,WNW,292,0.0,10.0,67,0.00,,,0.00,Weather View 32 v70,2013-05-04 11:17:00,
2013-05-04 07:22:00,56.3,45.1,29.79,WNW,292,2.0,10.0,66,0.00,,,0.00,Weather View 32 v70,2013-05-04 11:22:00,
2013-05-04 07:27:00,56.3,45.1,29.79,WNW,292,5.0,10.0,66,0.00,,,0.00,Weather View 32 v70,2013-05-04 11:27:00,
2013-05-04 07:32:00,56.2,45.0,29.79,WNW,292,6.0,10.0,66,0.00,,,0.00,Weather View 32 v70,2013-05-04 11:32:00,
2013-05-04 07:37:00,56.4,45.2,29.79,WNW,292,4.0,10.0,66,0.00,,,0.00,Weather View 32 v70,2013-05-04 11:37:00,
2013-05-04 07:42:00,56.8,45.5,29.80,West,270,3.0,10.0,66,0.00,,,0.00,Weather View 32 v70,2013-05-04 11:42:00,
2013-05-04 07:47:00,56.8,45.5,29.80,WNW,292,2.0,10.0,66,0.00,,,0.00,Weather View 32 v70,2013-05-04 11:47:00,
2013-05-04 07:52:00,57.3,45.6,29.80,WNW,292,5.0,10.0,65,0.00,,,0.00,Weather View 32 v70,2013-05-04 11:52:00,
2013-05-04 07:57:00,58.0,46.7,29.80,WNW,292,0.0,10.0,66,0.00,,,0.00,Weather View 32 v70,2013-05-04 11:57:00,
2013-05-04 08:03:00,59.1,46.9,29.80,NNW,337,4.0,7.0,64,0.00,,,0.00,Weather View 32 v70,2013-05-04 12:03:00,
2013-05-04 08:08:00,60.4,46.9,29.80,NNW,337,4.0,7.0,61,0.00,,,0.00,Weather View 32 v70,2013-05-04 12:08:00,
2013-05-04 08:13:00,61.3,45.9,29.80,WNW,292,4.0,7.0,57,0.00,,,0.00,Weather View 32 v70,2013-05-04 12:13:00,
2013-05-04 08:18:00,61.4,46.0,29.80,NW,315,0.0,7.0,57,0.00,,,0.00,Weather View 32 v70,2013-05-04 12:18:00,
2013-05-04 08:23:00,62.4,46.9,29.80,NW,315,0.0,7.0,57,0.00,,,0.00,Weather View 32 v70,2013-05-04 12:23:00,
2013-05-04 08:28:00,63.1,46.1,29.80,NNW,337,0.0,7.0,54,0.00,,,0.00,Weather View 32 v70,2013-05-04 12:28:00,
2013-05-04 08:33:00,64.1,46.1,29.80,East,90,3.0,7.0,52,0.00,,,0.00,Weather View 32 v70,2013-05-04 12:33:00,
2013-05-04 08:38:00,64.4,45.3,29.80,West,270,4.0,7.0,50,0.00,,,0.00,Weather View 32 v70,2013-05-04 12:38:00,
2013-05-04 08:43:00,64.1,47.6,29.80,South,180,1.0,7.0,55,0.00,,,0.00,Weather View 32 v70,2013-05-04 12:43:00,
2013-05-04 08:48:00,63.6,46.6,29.80,WSW,247,0.0,9.0,54,0.00,,,0.00,Weather View 32 v70,2013-05-04 12:48:00,
2013-05-04 08:53:00,63.7,45.7,29.81,NW,315,3.0,9.0,52,0.00,,,0.00,Weather View 32 v70,2013-05-04 12:53:00,
2013-05-04 08:58:00,64.4,46.3,29.80,WNW,292,3.0,9.0,52,0.00,,,0.00,Weather View 32 v70,2013-05-04 12:58:00,
2013-05-04 09:03:00,64.4,46.3,29.80,NNE,22,0.0,9.0,52,0.00,,,0.00,Weather View 32 v70,2013-05-04 13:03:00,
2013-05-04 09:09:00,65.0,45.9,29.81,East,90,0.0,9.0,50,0.00,,,0.00,Weather View 32 v70,2013-05-04 13:09:00,
2013-05-04 09:14:00,65.6,45.3,29.81,SE,135,0.0,9.0,48,0.00,,,0.00,Weather View 32 v70,2013-05-04 13:14:00,
2013-05-04 09:19:00,66.1,45.2,29.81,NE,45,0.0,9.0,47,0.00,,,0.00,Weather View 32 v70,2013-05-04 13:19:00,
2013-05-04 09:24:00,66.6,44.5,29.81,North,360,1.0,9.0,45,0.00,,,0.00,Weather View 32 v70,2013-05-04 13:24:00,
2013-05-04 09:29:00,67.2,46.2,29.81,East,90,0.0,9.0,47,0.00,,,0.00,Weather View 32 v70,2013-05-04 13:29:00,
2013-05-04 09:34:00,68.1,47.1,29.81,NW,315,5.0,9.0,47,0.00,,,0.00,Weather View 32 v70,2013-05-04 13:34:00,
2013-05-04 09:39:00,67.4,47.0,29.81,NW,315,4.0,9.0,48,0.00,,,0.00,Weather View 32 v70,2013-05-04 13:39:00,
2013-05-04 09:44:00,67.3,46.9,29.81,SW,225,5.0,9.0,48,0.00,,,0.00,Weather View 32 v70,2013-05-04 13:44:00,
2013-05-04 09:49:00,67.2,46.8,29.81,WNW,292,1.0,7.0,48,0.00,,,0.00,Weather View 32 v70,2013-05-04 13:49:00,
2013-05-04 09:54:00,68.0,47.0,29.81,North,360,2.0,7.0,47,0.00,,,0.00,Weather View 32 v70,2013-05-04 13:54:00,
2013-05-04 09:59:00,68.3,46.7,29.81,ENE,67,2.0,7.0,46,0.00,,,0.00,Weather View 32 v70,2013-05-04 13:59:00,
2013-05-04 10:04:00,68.1,46.5,29.81,NNW,337,4.0,7.0,46,0.00,,,0.00,Weather View 32 v70,2013-05-04 14:04:00,
2013-05-04 10:09:00,68.6,46.9,29.81,North,360,2.0,9.0,46,0.00,,,0.00,Weather View 32 v70,2013-05-04 14:09:00,
2013-05-04 10:14:00,69.8,46.8,29.81,WNW,292,4.0,9.0,44,0.00,,,0.00,Weather View 32 v70,2013-05-04 14:14:00,
2013-05-04 10:19:00,70.1,45.9,29.81,NE,45,2.0,9.0,42,0.00,,,0.00,Weather View 32 v70,2013-05-04 14:19:00,
2013-05-04 10:24:00,69.9,45.1,29.81,WSW,247,1.0,9.0,41,0.00,,,0.00,Weather View 32 v70,2013-05-04 14:24:00,
2013-05-04 10:29:00,68.8,45.9,29.81,WSW,247,3.0,9.0,44,0.00,,,0.00,Weather View 32 v70,2013-05-04 14:29:00,
2013-05-04 10:34:00,68.7,47.0,29.81,West,270,8.0,9.0,46,0.00,,,0.00,Weather View 32 v70,2013-05-04 14:34:00,
2013-05-04 10:39:00,68.1,45.9,29.81,North,360,6.0,9.0,45,0.00,,,0.00,Weather View 32 v70,2013-05-04 14:39:00,
2013-05-04 10:44:00,68.8,45.9,29.81,WNW,292,8.0,9.0,44,0.00,,,0.00,Weather View 32 v70,2013-05-04 14:44:00,
2013-05-04 10:49:00,69.2,45.7,29.81,NNW,337,4.0,9.0,43,0.00,,,0.00,Weather View 32 v70,2013-05-04 14:49:00,
2013-05-04 10:54:00,69.7,46.1,29.81,West,270,5.0,9.0,43,0.00,,,0.00,Weather View 32 v70,2013-05-04 14:54:00,
2013-05-04 10:59:00,68.9,45.4,29.80,WSW,247,6.0,9.0,43,0.00,,,0.00,Weather View 32 v70,2013-05-04 14:59:00,
2013-05-04 11:04:00,69.1,46.2,29.80,NW,315,0.0,9.0,44,0.00,,,0.00,Weather View 32 v70,2013-05-04 15:04:00,
2013-05-04 11:09:00,69.6,46.7,29.80,NW,315,7.0,9.0,44,0.00,,,0.00,Weather View 32 v70,2013-05-04 15:09:00,
2013-05-04 11:14:00,69.1,45.6,29.80,West,270,6.0,9.0,43,0.00,,,0.00,Weather View 32 v70,2013-05-04 15:14:00,
2013-05-04 11:19:00,68.7,44.0,29.80,WSW,247,7.0,9.0,41,0.00,,,0.00,Weather View 32 v70,2013-05-04 15:19:00,
2013-05-04 11:24:00,69.2,45.1,29.80,NNW,337,1.0,9.0,42,0.00,,,0.00,Weather View 32 v70,2013-05-04 15:24:00,
2013-05-04 11:29:00,69.8,45.0,29.79,WSW,247,7.0,9.0,41,0.00,,,0.00,Weather View 32 v70,2013-05-04 15:29:00,
2013-05-04 11:34:00,69.4,45.3,29.79,NNW,337,7.0,9.0,42,0.00,,,0.00,Weather View 32 v70,2013-05-04 15:34:00,
2013-05-04 11:39:00,70.7,45.8,29.79,NNE,22,6.0,9.0,41,0.00,,,0.00,Weather View 32 v70,2013-05-04 15:39:00,
2013-05-04 11:44:00,70.8,45.2,29.79,WSW,247,2.0,9.0,40,0.00,,,0.00,Weather View 32 v70,2013-05-04 15:44:00,
2013-05-04 11:49:00,70.4,45.5,29.79,NW,315,5.0,12.0,41,0.00,,,0.00,Weather View 32 v70,2013-05-04 15:49:00,
2013-05-04 11:54:00,70.6,45.0,29.79,WNW,292,3.0,12.0,40,0.00,,,0.00,Weather View 32 v70,2013-05-04 15:54:00,
2013-05-04 11:59:00,70.8,44.5,29.79,NW,315,3.0,13.0,39,0.00,,,0.00,Weather View 32 v70,2013-05-04 15:59:00,
2013-05-04 12:04:00,71.4,45.1,29.79,WNW,292,4.0,13.0,39,0.00,,,0.00,Weather View 32 v70,2013-05-04 16:04:00,
2013-05-04 12:09:00,71.1,44.8,29.78,West,270,3.0,13.0,39,0.00,,,0.00,Weather View 32 v70,2013-05-04 16:09:00,
2013-05-04 12:14:00,71.4,46.4,29.78,WNW,292,7.0,13.0,41,0.00,,,0.00,Weather View 32 v70,2013-05-04 16:14:00,
2013-05-04 12:19:00,72.1,45.7,29.78,NW,315,0.0,13.0,39,0.00,,,0.00,Weather View 32 v70,2013-05-04 16:19:00,
2013-05-04 12:24:00,72.3,45.2,29.78,NW,315,7.0,13.0,38,0.00,,,0.00,Weather View 32 v70,2013-05-04 16:24:00,
2013-05-04 12:29:00,72.0,44.9,29.77,NNW,337,0.0,13.0,38,0.00,,,0.00,Weather View 32 v70,2013-05-04 16:29:00,
2013-05-04 12:34:00,72.9,45.0,29.77,West,270,6.0,13.0,37,0.00,,,0.00,Weather View 32 v70,2013-05-04 16:34:00,
2013-05-04 12:39:00,72.1,45.0,29.77,WSW,247,5.0,13.0,38,0.00,,,0.00,Weather View 32 v70,2013-05-04 16:39:00,
2013-05-04 12:44:00,71.4,43.7,29.77,WNW,292,4.0,13.0,37,0.00,,,0.00,Weather View 32 v70,2013-05-04 16:44:00,
2013-05-04 12:49:00,71.9,44.1,29.77,SSE,157,4.0,13.0,37,0.00,,,0.00,Weather View 32 v70,2013-05-04 16:49:00,
2013-05-04 12:54:00,71.9,44.1,29.76,South,180,1.0,13.0,37,0.00,,,0.00,Weather View 32 v70,2013-05-04 16:54:00,
2013-05-04 12:59:00,72.7,44.9,29.76,WNW,292,7.0,13.0,37,0.00,,,0.00,Weather View 32 v70,2013-05-04 16:59:00,
2013-05-04 13:04:00,73.0,45.1,29.76,NNW,337,6.0,12.0,37,0.00,,,0.00,Weather View 32 v70,2013-05-04 17:04:00,
2013-05-04 13:09:00,73.0,44.4,29.76,West,270,6.0,12.0,36,0.00,,,0.00,Weather View 32 v70,2013-05-04 17:09:00,
2013-05-04 13:14:00,72.7,44.1,29.76,WSW,247,6.0,12.0,36,0.00,,,0.00,Weather View 32 v70,2013-05-04 17:14:00,
2013-05-04 13:19:00,73.2,45.3,29.76,NW,315,6.0,12.0,37,0.00,,,0.00,Weather View 32 v70,2013-05-04 17:19:00,
2013-05-04 13:24:00,73.6,44.2,29.76,WNW,292,6.0,12.0,35,0.00,,,0.00,Weather View 32 v70,2013-05-04 17:24:00,
2013-05-04 13:29:00,73.5,44.1,29.76,West,270,4.0,12.0,35,0.00,,,0.00,Weather View 32 v70,2013-05-04 17:29:00,
2013-05-04 13:34:00,74.0,43.8,29.76,North,360,8.0,11.0,34,0.00,,,0.00,Weather View 32 v70,2013-05-04 17:34:00,
2013-05-04 13:39:00,73.9,43.7,29.75,NNE,22,7.0,12.0,34,0.00,,,0.00,Weather View 32 v70,2013-05-04 17:39:00,
2013-05-04 13:44:00,74.1,43.9,29.75,NNW,337,0.0,12.0,34,0.00,,,0.00,Weather View 32 v70,2013-05-04 17:44:00,
2013-05-04 13:49:00,74.6,43.5,29.75,NNW,337,1.0,12.0,33,0.00,,,0.00,Weather View 32 v70,2013-05-04 17:49:00,
2013-05-04 13:54:00,75.1,43.1,29.74,WNW,292,0.0,12.0,32,0.00,,,0.00,Weather View 32 v70,2013-05-04 17:54:00,
2013-05-04 13:59:00,74.8,43.7,29.74,North,360,7.0,12.0,33,0.00,,,0.00,Weather View 32 v70,2013-05-04 17:59:00,
2013-05-04 14:04:00,75.3,45.7,29.74,WNW,292,8.0,12.0,35,0.00,,,0.00,Weather View 32 v70,2013-05-04 18:04:00,
2013-05-04 14:09:00,75.0,43.9,29.74,North,360,5.0,12.0,33,0.00,,,0.00,Weather View 32 v70,2013-05-04 18:09:00,
2013-05-04 14:14:00,75.6,44.4,29.74,WNW,292,9.0,12.0,33,0.00,,,0.00,Weather View 32 v70,2013-05-04 18:14:00,
2013-05-04 14:19:00,74.9,43.0,29.74,NNE,22,0.0,12.0,32,0.00,,,0.00,Weather View 32 v70,2013-05-04 18:19:00,
2013-05-04 14:24:00,75.2,42.4,29.74,WNW,292,6.0,12.0,31,0.00,,,0.00,Weather View 32 v70,2013-05-04 18:24:00,
2013-05-04 14:29:00,75.0,43.1,29.73,West,270,1.0,12.0,32,0.00,,,0.00,Weather View 32 v70,2013-05-04 18:29:00,
2013-05-04 14:34:00,74.6,44.3,29.73,NE,45,5.0,12.0,34,0.00,,,0.00,Weather View 32 v70,2013-05-04 18:34:00,
2013-05-04 14:39:00,75.3,42.5,29.73,NNE,22,8.0,12.0,31,0.00,,,0.00,Weather View 32 v70,2013-05-04 18:39:00,
2013-05-04 14:44:00,75.9,44.6,29.73,NNW,337,4.0,12.0,33,0.00,,,0.00,Weather View 32 v70,2013-05-04 18:44:00,
2013-05-04 14:49:00,76.7,41.0,29.72,NNW,337,5.0,12.0,28,0.00,,,0.00,Weather View 32 v70,2013-05-04 18:49:00,
2013-05-04 14:54:00,76.7,42.8,29.72,SSE,157,0.0,12.0,30,0.00,,,0.00,Weather View 32 v70,2013-05-04 18:54:00,
2013-05-04 14:59:00,77.0,44.0,29.72,WNW,292,6.0,12.0,31,0.00,,,0.00,Weather View 32 v70,2013-05-04 18:59:00,
2013-05-04 15:04:00,76.9,42.1,29.72,NNE,22,3.0,12.0,29,0.00,,,0.00,Weather View 32 v70,2013-05-04 19:04:00,
2013-05-04 15:09:00,77.4,43.4,29.72,WNW,292,3.0,12.0,30,0.00,,,0.00,Weather View 32 v70,2013-05-04 19:09:00,
2013-05-04 15:14:00,77.5,42.6,29.72,NNW,337,8.0,12.0,29,0.00,,,0.00,Weather View 32 v70,2013-05-04 19:14:00,
2013-05-04 15:19:00,77.3,41.6,29.72,NNW,337,5.0,12.0,28,0.00,,,0.00,Weather View 32 v70,2013-05-04 19:19:00,
2013-05-04 15:24:00,77.4,42.6,29.72,North,360,3.0,12.0,29,0.00,,,0.00,Weather View 32 v70,2013-05-04 19:24:00,
2013-05-04 15:29:00,77.7,42.8,29.71,NNE,22,5.0,12.0,29,0.00,,,0.00,Weather View 32 v70,2013-05-04 19:29:00,
2013-05-04 15:34:00,77.7,41.9,29.71,NNE,22,5.0,11.0,28,0.00,,,0.00,Weather View 32 v70,2013-05-04 19:34:00,
2013-05-04 15:39:00,77.7,41.0,29.71,NNW,337,6.0,11.0,27,0.00,,,0.00,Weather View 32 v70,2013-05-04 19:39:00,
2013-05-04 15:44:00,77.8,42.9,29.71,NNE,22,3.0,11.0,29,0.00,,,0.00,Weather View 32 v70,2013-05-04 19:44:00,
2013-05-04 15:49:00,78.1,41.3,29.71,NNE,22,1.0,10.0,27,0.00,,,0.00,Weather View 32 v70,2013-05-04 19:49:00,
2013-05-04 15:54:00,77.9,42.1,29.71,West,270,0.0,10.0,28,0.00,,,0.00,Weather View 32 v70,2013-05-04 19:54:00,
2013-05-04 15:59:00,77.4,41.6,29.71,NW,315,5.0,10.0,28,0.00,,,0.00,Weather View 32 v70,2013-05-04 19:59:00,
2013-05-04 16:04:00,77.3,42.5,29.70,NNW,337,5.0,10.0,29,0.00,,,0.00,Weather View 32 v70,2013-05-04 20:04:00,
2013-05-04 16:09:00,77.7,41.9,29.70,NNE,22,7.0,10.0,28,0.00,,,0.00,Weather View 32 v70,2013-05-04 20:09:00,
2013-05-04 16:14:00,77.3,42.5,29.70,North,360,0.0,10.0,29,0.00,,,0.00,Weather View 32 v70,2013-05-04 20:14:00,
2013-05-04 16:19:00,77.6,41.8,29.70,West,270,2.0,10.0,28,0.00,,,0.00,Weather View 32 v70,2013-05-04 20:19:00,
2013-05-04 16:24:00,77.7,41.9,29.70,NW,315,5.0,10.0,28,0.00,,,0.00,Weather View 32 v70,2013-05-04 20:24:00,
2013-05-04 16:29:00,77.3,41.6,29.70,NNW,337,7.0,10.0,28,0.00,,,0.00,Weather View 32 v70,2013-05-04 20:29:00,
2013-05-04 16:34:00,77.3,40.6,29.70,WNW,292,3.0,10.0,27,0.00,,,0.00,Weather View 32 v70,2013-05-04 20:34:00,
2013-05-04 16:39:00,77.4,41.6,29.70,NNE,22,1.0,10.0,28,0.00,,,0.00,Weather View 32 v70,2013-05-04 20:39:00,
2013-05-04 16:44:00,78.0,42.2,29.70,NNW,337,1.0,10.0,28,0.00,,,0.00,Weather View 32 v70,2013-05-04 20:44:00,
2013-05-04 16:49:00,78.2,42.3,29.70,WNW,292,7.0,10.0,28,0.00,,,0.00,Weather View 32 v70,2013-05-04 20:49:00,
2013-05-04 16:54:00,77.9,42.1,29.70,West,270,1.0,10.0,28,0.00,,,0.00,Weather View 32 v70,2013-05-04 20:54:00,
2013-05-04 16:59:00,77.9,43.0,29.70,NW,315,2.0,10.0,29,0.00,,,0.00,Weather View 32 v70,2013-05-04 20:59:00,
2013-05-04 17:04:00,77.2,41.5,29.70,NNW,337,4.0,10.0,28,0.00,,,0.00,Weather View 32 v70,2013-05-04 21:04:00,
2013-05-04 17:09:00,76.4,40.8,29.70,West,270,5.0,10.0,28,0.00,,,0.00,Weather View 32 v70,2013-05-04 21:09:00,
2013-05-04 17:14:00,76.4,40.8,29.70,WNW,292,3.0,10.0,28,0.00,,,0.00,Weather View 32 v70,2013-05-04 21:14:00,
2013-05-04 17:19:00,77.1,41.4,29.70,North,360,4.0,10.0,28,0.00,,,0.00,Weather View 32 v70,2013-05-04 21:19:00,
2013-05-04 17:24:00,77.7,40.0,29.70,NNE,22,0.0,10.0,26,0.00,,,0.00,Weather View 32 v70,2013-05-04 21:24:00,
2013-05-04 17:29:00,78.2,41.4,29.70,NW,315,3.0,10.0,27,0.00,,,0.00,Weather View 32 v70,2013-05-04 21:29:00,
2013-05-04 17:34:00,78.1,40.3,29.70,NNW,337,0.0,10.0,26,0.00,,,0.00,Weather View 32 v70,2013-05-04 21:34:00,
2013-05-04 17:39:00,77.4,41.6,29.70,WSW,247,6.0,10.0,28,0.00,,,0.00,Weather View 32 v70,2013-05-04 21:39:00,
2013-05-04 17:44:00,76.4,40.8,29.70,SW,225,0.0,10.0,28,0.00,,,0.00,Weather View 32 v70,2013-05-04 21:44:00,
2013-05-04 17:49:00,77.2,41.5,29.70,NW,315,5.0,10.0,28,0.00,,,0.00,Weather View 32 v70,2013-05-04 21:49:00,
2013-05-04 17:54:00,77.6,41.8,29.69,NNW,337,2.0,10.0,28,0.00,,,0.00,Weather View 32 v70,2013-05-04 21:54:00,
2013-05-04 17:59:00,78.2,40.4,29.69,NNW,337,5.0,10.0,26,0.00,,,0.00,Weather View 32 v70,2013-05-04 21:59:00,
2013-05-04 18:04:00,78.4,40.6,29.69,North,360,5.0,10.0,26,0.00,,,0.00,Weather View 32 v70,2013-05-04 22:04:00,
2013-05-04 18:09:00,78.6,40.8,29.69,North,360,0.0,10.0,26,0.00,,,0.00,Weather View 32 v70,2013-05-04 22:09:00,
2013-05-04 18:14:00,78.7,40.8,29.69,North,360,0.0,10.0,26,0.00,,,0.00,Weather View 32 v70,2013-05-04 22:14:00,
2013-05-04 18:19:00,79.1,40.2,29.69,NW,315,3.0,10.0,25,0.00,,,0.00,Weather View 32 v70,2013-05-04 22:19:00,
2013-05-04 18:24:00,78.9,41.0,29.69,North,360,0.0,10.0,26,0.00,,,0.00,Weather View 32 v70,2013-05-04 22:24:00,
2013-05-04 18:29:00,79.3,41.3,29.69,NNE,22,1.0,10.0,26,0.00,,,0.00,Weather View 32 v70,2013-05-04 22:29:00,
2013-05-04 18:34:00,78.7,40.8,29.69,North,360,0.0,10.0,26,0.00,,,0.00,Weather View 32 v70,2013-05-04 22:34:00,
2013-05-04 18:39:00,79.0,42.1,29.68,North,360,0.0,10.0,27,0.00,,,0.00,Weather View 32 v70,2013-05-04 22:39:00,
2013-05-04 18:44:00,78.9,40.0,29.68,NNW,337,2.0,10.0,25,0.00,,,0.00,Weather View 32 v70,2013-05-04 22:44:00,
2013-05-04 18:49:00,78.9,41.0,29.68,North,360,2.0,7.0,26,0.00,,,0.00,Weather View 32 v70,2013-05-04 22:49:00,
2013-05-04 18:54:00,78.5,40.7,29.68,North,360,0.0,7.0,26,0.00,,,0.00,Weather View 32 v70,2013-05-04 22:54:00,
2013-05-04 18:59:00,77.9,41.1,29.68,NNE,22,3.0,7.0,27,0.00,,,0.00,Weather View 32 v70,2013-05-04 22:59:00,
2013-05-04 19:04:00,77.8,42.0,29.68,NNE,22,0.0,6.0,28,0.00,,,0.00,Weather View 32 v70,2013-05-04 23:04:00,
2013-05-04 19:10:00,77.8,42.0,29.68,NNE,22,0.0,6.0,28,0.00,,,0.00,Weather View 32 v70,2013-05-04 23:10:00,
2013-05-04 19:15:00,77.3,43.4,29.68,NNE,22,0.0,6.0,30,0.00,,,0.00,Weather View 32 v70,2013-05-04 23:15:00,
2013-05-04 19:20:00,76.7,46.1,29.68,East,90,0.0,6.0,34,0.00,,,0.00,Weather View 32 v70,2013-05-04 23:20:00,
2013-05-04 19:25:00,75.7,43.7,29.68,South,180,0.0,6.0,32,0.00,,,0.00,Weather View 32 v70,2013-05-04 23:25:00,
2013-05-04 19:30:00,74.6,42.7,29.68,South,180,1.0,6.0,32,0.00,,,0.00,Weather View 32 v70,2013-05-04 23:30:00,
2013-05-04 19:35:00,73.6,43.4,29.69,SSE,157,3.0,6.0,34,0.00,,,0.00,Weather View 32 v70,2013-05-04 23:35:00,
2013-05-04 19:40:00,72.2,43.7,29.68,SSE,157,2.0,6.0,36,0.00,,,0.00,Weather View 32 v70,2013-05-04 23:40:00,
2013-05-04 19:45:00,70.9,43.3,29.68,SSE,157,3.0,6.0,37,0.00,,,0.00,Weather View 32 v70,2013-05-04 23:45:00,
2013-05-04 19:50:00,69.3,42.5,29.68,SSE,157,1.0,5.0,38,0.00,,,0.00,Weather View 32 v70,2013-05-04 23:50:00,
2013-05-04 19:55:00,68.3,42.3,29.68,SSE,157,3.0,5.0,39,0.00,,,0.00,Weather View 32 v70,2013-05-04 23:55:00,
2013-05-04 20:00:00,67.4,42.8,29.68,SSE,157,2.0,5.0,41,0.00,,,0.00,Weather View 32 v70,2013-05-05 00:00:00,
2013-05-04 20:05:00,66.5,41.4,29.68,SSE,157,3.0,6.0,40,0.00,,,0.00,Weather View 32 v70,2013-05-05 00:05:00,
2013-05-04 20:10:00,65.6,43.0,29.68,SSE,157,4.0,6.0,44,0.00,,,0.00,Weather View 32 v70,2013-05-05 00:10:00,
2013-05-04 20:15:00,64.7,42.2,29.68,SSE,157,3.0,6.0,44,0.00,,,0.00,Weather View 32 v70,2013-05-05 00:15:00,
2013-05-04 20:20:00,64.4,41.4,29.68,SSE,157,4.0,6.0,43,0.00,,,0.00,Weather View 32 v70,2013-05-05 00:20:00,
2013-05-04 20:25:00,64.1,42.3,29.68,SSE,157,2.0,6.0,45,0.00,,,0.00,Weather View 32 v70,2013-05-05 00:25:00,
2013-05-04 20:30:00,63.9,42.1,29.68,SSE,157,4.0,6.0,45,0.00,,,0.00,Weather View 32 v70,2013-05-05 00:30:00,
2013-05-04 20:35:00,63.5,41.7,29.68,SSE,157,6.0,6.0,45,0.00,,,0.00,Weather View 32 v70,2013-05-05 00:35:00,
2013-05-04 20:40:00,63.2,41.5,29.68,SSE,157,3.0,6.0,45,0.00,,,0.00,Weather View 32 v70,2013-05-05 00:40:00,
2013-05-04 20:45:00,63.0,41.3,29.68,SSE,157,4.0,6.0,45,0.00,,,0.00,Weather View 32 v70,2013-05-05 00:45:00,
2013-05-04 20:50:00,63.3,41.5,29.68,SSE,157,3.0,6.0,45,0.00,,,0.00,Weather View 32 v70,2013-05-05 00:50:00,
2013-05-04 20:55:00,63.4,41.6,29.68,SE,135,4.0,6.0,45,0.00,,,0.00,Weather View 32 v70,2013-05-05 00:55:00,
2013-05-04 21:00:00,63.2,41.5,29.68,SE,135,4.0,6.0,45,0.00,,,0.00,Weather View 32 v70,2013-05-05 01:00:00,
2013-05-04 21:05:00,62.4,41.9,29.68,SSE,157,2.0,6.0,47,0.00,,,0.00,Weather View 32 v70,2013-05-05 01:05:00,
2013-05-04 21:10:00,62.1,42.1,29.68,SSE,157,2.0,6.0,48,0.00,,,0.00,Weather View 32 v70,2013-05-05 01:10:00,
2013-05-04 21:15:00,62.2,41.7,29.68,SSE,157,4.0,6.0,47,0.00,,,0.00,Weather View 32 v70,2013-05-05 01:15:00,
2013-05-04 21:20:00,63.4,41.1,29.67,SE,135,3.0,6.0,44,0.00,,,0.00,Weather View 32 v70,2013-05-05 01:20:00,
2013-05-04 21:25:00,64.1,41.1,29.67,SE,135,5.0,6.0,43,0.00,,,0.00,Weather View 32 v70,2013-05-05 01:25:00,
2013-05-04 21:30:00,64.0,41.0,29.67,SE,135,0.0,6.0,43,0.00,,,0.00,Weather View 32 v70,2013-05-05 01:30:00,
2013-05-04 21:35:00,63.8,40.8,29.67,SE,135,4.0,6.0,43,0.00,,,0.00,Weather View 32 v70,2013-05-05 01:35:00,
2013-05-04 21:40:00,63.5,41.1,29.67,SSE,157,4.0,6.0,44,0.00,,,0.00,Weather View 32 v70,2013-05-05 01:40:00,
2013-05-04 21:45:00,63.0,41.3,29.67,SSE,157,2.0,6.0,45,0.00,,,0.00,Weather View 32 v70,2013-05-05 01:45:00,
2013-05-04 21:50:00,62.9,41.2,29.67,SE,135,4.0,6.0,45,0.00,,,0.00,Weather View 32 v70,2013-05-05 01:50:00,
2013-05-04 21:55:00,62.9,41.2,29.68,SE,135,0.0,6.0,45,0.00,,,0.00,Weather View 32 v70,2013-05-05 01:55:00,
2013-05-04 22:00:00,62.7,42.1,29.68,South,180,0.0,6.0,47,0.00,,,0.00,Weather View 32 v70,2013-05-05 02:00:00,
2013-05-04 22:06:00,61.7,41.2,29.68,SSE,157,0.0,6.0,47,0.00,,,0.00,Weather View 32 v70,2013-05-05 02:06:00,
2013-05-04 22:11:00,61.4,41.5,29.68,SE,135,5.0,6.0,48,0.00,,,0.00,Weather View 32 v70,2013-05-05 02:11:00,
2013-05-04 22:16:00,63.4,41.6,29.68,ESE,112,7.0,10.0,45,0.00,,,0.00,Weather View 32 v70,2013-05-05 02:16:00,
2013-05-04 22:21:00,64.5,40.8,29.68,SE,135,6.0,11.0,42,0.00,,,0.00,Weather View 32 v70,2013-05-05 02:21:00,
2013-05-04 22:26:00,65.0,40.7,29.68,SSE,157,7.0,11.0,41,0.00,,,0.00,Weather View 32 v70,2013-05-05 02:26:00,
2013-05-04 22:31:00,65.2,38.9,29.68,SSE,157,9.0,11.0,38,0.00,,,0.00,Weather View 32 v70,2013-05-05 02:31:00,
2013-05-04 22:36:00,65.2,36.8,29.68,SSE,157,9.0,11.0,35,0.00,,,0.00,Weather View 32 v70,2013-05-05 02:36:00,
2013-05-04 22:41:00,65.6,37.1,29.68,South,180,7.0,11.0,35,0.00,,,0.00,Weather View 32 v70,2013-05-05 02:41:00,
2013-05-04 22:46:00,65.3,35.4,29.68,SSE,157,8.0,11.0,33,0.00,,,0.00,Weather View 32 v70,2013-05-05 02:46:00,
2013-05-04 22:51:00,64.9,35.0,29.68,SE,135,6.0,11.0,33,0.00,,,0.00,Weather View 32 v70,2013-05-05 02:51:00,
2013-05-04 22:56:00,65.1,32.8,29.68,South,180,6.0,12.0,30,0.00,,,0.00,Weather View 32 v70,2013-05-05 02:56:00,
2013-05-04 23:01:00,65.4,32.2,29.68,SSE,157,9.0,12.0,29,0.00,,,0.00,Weather View 32 v70,2013-05-05 03:01:00,
2013-05-04 23:06:00,65.8,31.7,29.68,SSE,157,10.0,15.0,28,0.00,,,0.00,Weather View 32 v70,2013-05-05 03:06:00,
2013-05-04 23:11:00,66.0,31.0,29.68,SSE,157,7.0,15.0,27,0.00,,,0.00,Weather View 32 v70,2013-05-05 03:11:00,
2013-05-04 23:16:00,66.0,31.0,29.68,SE,135,9.0,17.0,27,0.00,,,0.00,Weather View 32 v70,2013-05-05 03:16:00,
2013-05-04 23:21:00,65.9,31.8,29.68,SSE,157,6.0,17.0,28,0.00,,,0.00,Weather View 32 v70,2013-05-05 03:21:00,
2013-05-04 23:26:00,65.4,32.2,29.68,SSE,157,12.0,17.0,29,0.00,,,0.00,Weather View 32 v70,2013-05-05 03:26:00,
2013-05-04 23:31:00,65.4,33.1,29.68,SE,135,7.0,19.0,30,0.00,,,0.00,Weather View 32 v70,2013-05-05 03:31:00,
2013-05-04 23:36:00,65.2,32.9,29.68,SSE,157,16.0,22.0,30,0.00,,,0.00,Weather View 32 v70,2013-05-05 03:36:00,
2013-05-04 23:41:00,64.7,34.1,29.68,SSE,157,13.0,22.0,32,0.00,,,0.00,Weather View 32 v70,2013-05-05 03:41:00,
2013-05-04 23:46:00,64.4,34.6,29.68,SSE,157,13.0,22.0,33,0.00,,,0.00,Weather View 32 v70,2013-05-05 03:46:00,
2013-05-04 23:51:00,64.2,34.4,29.68,SSE,157,10.0,22.0,33,0.00,,,0.00,Weather View 32 v70,2013-05-05 03:51:00,
2013-05-04 23:56:00,64.1,34.3,29.68,SSE,157,16.0,22.0,33,0.00,,,0.00,Weather View 32 v70,2013-05-05 03:56:00,